Anoka County, MN

4:30 PM CST on February 20, 2018 (GMT -0600)
Anoka County / Blaine Airport

Weather History for KANE - August, 2012

Change the Weather History Date:

Tuesday, August 7, 2012

  Actual Average Record
Temperature  
Mean Temperature 75 °F -  
Max Temperature 84 °F 77 °F 98 °F (2001)
Min Temperature 66 °F 58 °F 53 °F (2008)
Cooling Degree Days 10    
Growing Degree Days 25 (Base 50)    
Moisture  
Dew Point 61 °F    
Average Humidity 71    
Maximum Humidity 94    
Minimum Humidity 33    
Precipitation  
Precipitation 0.00 in - - ()
Sea Level Pressure  
Sea Level Pressure 29.97 in    
Wind  
Wind Speed 2 mph (North)    
Max Wind Speed 10 mph    
Max Gust Speed -    
Visibility 10 miles    
Events      
Averages and records for this station are not official NWS values.
T = Trace of Precipitation, MM = Missing Value Source: NWS Daily Summary

Daily Weather History Graph

Daily Weather History Graph

Search for Another Location

Airport or City:

Trip Planner

Search our weather history database for the weather conditions in past years. The results will help you decide how hot, cold, wet, or windy it might be!

Date:

Astronomy

Aug. 07, 2012 Rise Set
Actual Time 6:05 AM CDT 8:30 PM CDT
Civil Twilight 5:32 AM CDT 9:03 PM CDT
Nautical Twilight 4:51 AM CDT 9:44 PM CDT
Astronomical Twilight 4:04 AM CDT 10:31 PM CDT
Moon 10:50 PM CDT (8/7) 12:14 PM CDT (8/7)
Length of Visible Light 15h 31m
Length of Day
14h 25m
Waning Gibbous, 69% of the Moon is Illuminated
Aug 7
Waning Gibbous
Aug 9
Last Quarter
Aug 17
New
Aug 24
First Quarter
Aug 31
Full

Hourly Weather History & Observations

Time (CDT) Temp. Heat Index Dew Point Humidity Pressure Visibility Wind Dir Wind Speed Gust Speed Precip Events Conditions
12:14 AM 69.8 °F - 66.2 °F 88% 29.93 in 10.0 mi Calm Calm - N/A   Clear
12:34 AM 69.8 °F - 66.2 °F 88% 29.94 in 10.0 mi Calm Calm - N/A   Clear
12:53 AM 69.8 °F - 64.4 °F 83% 29.94 in 10.0 mi Calm Calm - N/A   Clear
1:14 AM 69.8 °F - 64.4 °F 83% 29.94 in 10.0 mi Calm Calm - N/A   Clear
1:34 AM 68.0 °F - 64.4 °F 88% 29.93 in 10.0 mi Calm Calm - N/A   Clear
1:54 AM 68.0 °F - 64.4 °F 88% 29.94 in 10.0 mi Calm Calm - N/A   Clear
2:14 AM 66.2 °F - 64.4 °F 94% 29.93 in 10.0 mi Calm Calm - N/A   Clear
2:34 AM 66.2 °F - 64.4 °F 94% 29.94 in 10.0 mi Calm Calm - N/A   Clear
2:54 AM 68.0 °F - 66.2 °F 94% 29.94 in 10.0 mi Calm Calm - N/A   Clear
3:14 AM 66.2 °F - 64.4 °F 94% 29.94 in 10.0 mi Calm Calm - N/A   Clear
3:34 AM 68.0 °F - 64.4 °F 88% 29.94 in 10.0 mi Calm Calm - N/A   Clear
3:54 AM 66.2 °F - 64.4 °F 94% 29.94 in 10.0 mi Calm Calm - N/A   Clear
4:14 AM 69.8 °F - 66.2 °F 88% 29.94 in 10.0 mi NNW 9.2 mph - N/A   Clear
4:34 AM 71.6 °F - 66.2 °F 83% 29.94 in 10.0 mi NNW 6.9 mph - N/A   Clear
4:54 AM 69.8 °F - 66.2 °F 88% 29.95 in 10.0 mi NNW 4.6 mph - N/A   Clear
5:13 AM 69.8 °F - 66.2 °F 88% 29.95 in 10.0 mi NW 5.8 mph - N/A   Clear
5:34 AM 69.8 °F - 64.4 °F 83% 29.95 in 10.0 mi NNW 5.8 mph - N/A   Clear
5:54 AM 68.0 °F - 64.4 °F 88% 29.95 in 10.0 mi NNW 3.5 mph - N/A   Clear
6:13 AM 68.0 °F - 64.4 °F 88% 29.96 in 10.0 mi North 3.5 mph - N/A   Clear
6:34 AM 68.0 °F - 64.4 °F 88% 29.97 in 10.0 mi North 3.5 mph - N/A   Clear
6:45 AM 68.0 °F - 64.4 °F 88% 29.97 in 10.0 mi North 3.5 mph - N/A   Clear
6:54 AM 68.0 °F - 64.4 °F 88% 29.97 in 10.0 mi North 3.5 mph - N/A   Clear
7:45 AM 71.6 °F - 64.4 °F 78% 29.98 in 10.0 mi North 5.8 mph - N/A   Clear
10:45 AM 80.6 °F 81.5 °F 60.8 °F 51% 30.01 in 10.0 mi NNE 9.2 mph - N/A   Clear
11:45 AM 82.4 °F 81.7 °F 55.4 °F 39% 30.01 in 10.0 mi NNW 5.8 mph - N/A   Clear
12:45 PM 82.4 °F 81.4 °F 53.6 °F 37% 30.01 in 10.0 mi NNW 8.1 mph - N/A   Clear
1:45 PM 84.2 °F 83.0 °F 55.4 °F 37% 30.01 in 10.0 mi North 9.2 mph - N/A   Clear
2:50 PM 84.2 °F 83.0 °F 55.4 °F 37% 30.00 in 10.0 mi North 8.1 mph - N/A   Clear
3:50 PM 84.2 °F - 51.8 °F 33% 30.00 in 10.0 mi North 10.4 mph - N/A   Clear
4:45 PM 84.2 °F - 51.8 °F 33% 29.99 in 10.0 mi North 6.9 mph - N/A   Partly Cloudy
5:50 PM 82.4 °F - 51.8 °F 35% 30.00 in 10.0 mi NNW 5.8 mph - N/A   Partly Cloudy
7:45 PM 78.8 °F - 55.4 °F 44% 30.00 in 10.0 mi NNW 3.5 mph - N/A   Scattered Clouds
8:55 PM 73.4 °F - 57.2 °F 57% 30.01 in 10.0 mi North 3.5 mph - N/A   Scattered Clouds
9:14 PM 75.2 °F - 57.2 °F 53% 30.01 in 10.0 mi North 4.6 mph - N/A   Clear
9:34 PM 73.4 °F - 57.2 °F 57% 30.01 in 10.0 mi NNE 3.5 mph - N/A   Clear
9:45 PM 71.6 °F - 57.2 °F 60% 30.01 in 10.0 mi North 3.5 mph - N/A   Scattered Clouds
9:54 PM 71.6 °F - 57.2 °F 60% 30.01 in 10.0 mi North 4.6 mph - N/A   Clear
10:13 PM 71.6 °F - 59.0 °F 64% 30.01 in 10.0 mi North 4.6 mph - N/A   Clear
10:54 PM 69.8 °F - 59.0 °F 68% 30.01 in 10.0 mi Calm Calm - N/A   Clear
11:13 PM 71.6 °F - 59.0 °F 64% 30.01 in 10.0 mi Calm Calm - N/A   Clear
11:34 PM 69.8 °F - 59.0 °F 68% 30.01 in 10.0 mi Calm Calm - N/A   Clear
11:54 PM 66.2 °F - 59.0 °F 78% 30.01 in 10.0 mi ENE 3.5 mph - N/A   Clear